Alamogordo, NM

8:49 AM MST on November 12, 2019 (GMT -0700)
Alamogordo-White Sands Regional

Weather History for KALM - September, 2019

Change the Weather History Date:

Saturday, September 14, 2019

  Actual Average Record
Temperature  
Mean Temperature 73 °F -  
Max Temperature 80 °F 85 °F 136 °F (1999)
Min Temperature 66 °F 59 °F 43 °F (1959)
Cooling Degree Days 8    
Growing Degree Days 23 (Base 50)    
Moisture  
Dew Point 57 °F    
Average Humidity 54    
Maximum Humidity 73    
Minimum Humidity 42    
Precipitation  
Precipitation 0.00 in - - ()
Sea Level Pressure  
Sea Level Pressure 30.22 in    
Wind  
Wind Speed 6 mph ()    
Max Wind Speed 14 mph    
Max Gust Speed 20 mph    
Visibility 10.0 miles    
Events Thunderstorm    
Averages and records for this station are not official NWS values.
T = Trace of Precipitation, MM = Missing Value Source: Averaged Metar Reports

Daily Weather History Graph

Daily Weather History Graph

Search for Another Location

Airport or City:

Astronomy

Sep. 14, 2019 Rise Set
Actual Time 6:46 AM MDT 7:11 PM MDT
Civil Twilight 6:22 AM MDT 7:36 PM MDT
Nautical Twilight 5:53 AM MDT 8:05 PM MDT
Astronomical Twilight 5:23 AM MDT 8:34 PM MDT
Moon 7:53 PM MDT (9/14) 7:05 AM MDT (9/14)
Length of Visible Light 13h 14m
Length of Day
12h 24m
Full, 100% of the Moon is Illuminated
Sep 14
Full
Sep 21
Last Quarter
Sep 28
New
Oct 5
First Quarter
Oct 13
Full

Hourly Weather History & Observations

Time (MDT) Temp. Heat Index Dew Point Humidity Pressure Visibility Wind Dir Wind Speed Gust Speed Precip Events Conditions
12:15 AM 75.2 °F - 55.4 °F 50% 30.23 in 10.0 mi South 10.4 mph - N/A   Clear
12:35 AM 75.2 °F - 55.4 °F 50% 30.22 in 10.0 mi SSE 10.4 mph - N/A   Clear
12:55 AM 75.2 °F - 55.4 °F 50% 30.22 in 10.0 mi ESE 6.9 mph - N/A   Clear
1:15 AM 73.4 °F - 55.4 °F 53% 30.22 in 10.0 mi ENE 4.6 mph - N/A   Clear
1:35 AM 75.2 °F - 55.4 °F 50% 30.23 in 10.0 mi WNW 6.9 mph - N/A   Clear
1:55 AM 73.4 °F - 57.2 °F 57% 30.24 in 10.0 mi West 3.5 mph - N/A   Clear
2:15 AM 73.4 °F - 57.2 °F 57% 30.24 in 10.0 mi North 6.9 mph - N/A   Clear
2:35 AM 75.2 °F - 55.4 °F 50% 30.23 in 10.0 mi North 3.5 mph - N/A   Clear
2:55 AM 73.4 °F - 57.2 °F 57% 30.23 in 10.0 mi North 3.5 mph - N/A   Clear
3:15 AM 71.6 °F - 57.2 °F 60% 30.23 in 10.0 mi NE 6.9 mph - N/A   Clear
3:35 AM 71.6 °F - 57.2 °F 60% 30.22 in 10.0 mi North 4.6 mph - N/A   Clear
3:55 AM 69.8 °F - 57.2 °F 64% 30.22 in 10.0 mi NNW 5.8 mph - N/A   Clear
4:15 AM 69.8 °F - 57.2 °F 64% 30.23 in 10.0 mi NNW 4.6 mph - N/A   Clear
4:35 AM 71.6 °F - 57.2 °F 60% 30.23 in 10.0 mi NNW 6.9 mph - N/A   Clear
4:55 AM 68.0 °F - 57.2 °F 68% 30.23 in 10.0 mi NNW 6.9 mph - N/A   Clear
5:15 AM 68.0 °F - 57.2 °F 68% 30.24 in 10.0 mi North 5.8 mph - N/A   Clear
5:35 AM 68.0 °F - 57.2 °F 68% 30.24 in 10.0 mi North 6.9 mph - N/A   Clear
5:55 AM 68.0 °F - 57.2 °F 68% 30.24 in 10.0 mi North 4.6 mph - N/A   Clear
6:15 AM 68.0 °F - 57.2 °F 68% 30.25 in 10.0 mi North 4.6 mph - N/A   Clear
6:35 AM 68.0 °F - 57.2 °F 68% 30.25 in 10.0 mi North 5.8 mph - N/A   Clear
6:55 AM 66.2 °F - 57.2 °F 73% 30.26 in 10.0 mi NE 5.8 mph - N/A   Clear
7:15 AM 66.2 °F - 57.2 °F 73% 30.26 in 10.0 mi ENE 6.9 mph - N/A   Partly Cloudy
7:35 AM 68.0 °F - 57.2 °F 68% 30.26 in 10.0 mi NE 5.8 mph - N/A   Clear
7:55 AM 71.6 °F - 57.2 °F 60% 30.27 in 10.0 mi North 6.9 mph - N/A   Clear
8:15 AM 73.4 °F - 57.2 °F 57% 30.27 in 10.0 mi NNE 8.1 mph - N/A   Clear
8:35 AM 73.4 °F - 57.2 °F 57% 30.27 in 10.0 mi North 5.8 mph - N/A   Partly Cloudy
8:55 AM 73.4 °F - 57.2 °F 57% 30.28 in 10.0 mi Calm Calm - N/A   Scattered Clouds
9:15 AM 73.4 °F - 57.2 °F 57% 30.28 in 10.0 mi Calm Calm - N/A   Scattered Clouds
9:35 AM 73.4 °F - 57.2 °F 57% 30.28 in 10.0 mi Calm Calm - N/A   Partly Cloudy
9:55 AM 73.4 °F - 57.2 °F 57% 30.28 in 10.0 mi West 3.5 mph - N/A   Partly Cloudy
10:15 AM 75.2 °F - 57.2 °F 53% 30.29 in 10.0 mi WSW 3.5 mph - N/A   Partly Cloudy
10:35 AM 75.2 °F - 55.4 °F 50% 30.29 in 10.0 mi SW 6.9 mph - N/A   Mostly Cloudy
10:55 AM 75.2 °F - 55.4 °F 50% 30.29 in 10.0 mi SSW 3.5 mph - N/A   Overcast
11:15 AM 75.2 °F - 55.4 °F 50% 30.28 in 10.0 mi Calm Calm - N/A   Mostly Cloudy
11:55 AM 77.0 °F - 57.2 °F 50% 30.27 in 10.0 mi ENE 8.1 mph - N/A   Scattered Clouds
12:15 PM 78.8 °F - 57.2 °F 47% 30.26 in 10.0 mi NE 6.9 mph - N/A   Partly Cloudy
12:35 PM 78.8 °F - 57.2 °F 47% 30.25 in 10.0 mi South 3.5 mph - N/A   Partly Cloudy
1:15 PM 80.6 °F 80.5 °F 55.4 °F 42% 30.23 in 10.0 mi NE 6.9 mph - N/A   Mostly Cloudy
1:35 PM 78.8 °F - 57.2 °F 47% 30.23 in 10.0 mi ENE 13.8 mph 19.6 mph N/A Thunderstorm Scattered Clouds
1:55 PM 77.0 °F - 57.2 °F 50% 30.23 in 10.0 mi NE 12.7 mph - N/A   Mostly Cloudy
2:15 PM 77.0 °F - 57.2 °F 50% 30.22 in 10.0 mi NE 13.8 mph 19.6 mph N/A   Mostly Cloudy
2:35 PM 77.0 °F - 57.2 °F 50% 30.21 in 10.0 mi NNE 13.8 mph - N/A   Mostly Cloudy
2:55 PM 80.6 °F 80.8 °F 57.2 °F 45% 30.20 in 10.0 mi NE 12.7 mph - N/A   Mostly Cloudy
3:15 PM 80.6 °F 80.8 °F 57.2 °F 45% 30.19 in 10.0 mi NE 10.4 mph - N/A   Mostly Cloudy
3:35 PM 80.6 °F 80.8 °F 57.2 °F 45% 30.18 in 10.0 mi NE 12.7 mph 17.3 mph N/A   Partly Cloudy
3:55 PM 80.6 °F 80.8 °F 57.2 °F 45% 30.17 in 10.0 mi NNE 12.7 mph - N/A   Clear
4:15 PM 80.6 °F 80.5 °F 55.4 °F 42% 30.17 in 10.0 mi North 10.4 mph - N/A   Partly Cloudy
4:55 PM 80.6 °F 80.5 °F 55.4 °F 42% 30.16 in 10.0 mi North 6.9 mph - N/A   Partly Cloudy
5:15 PM 80.6 °F 80.5 °F 55.4 °F 42% 30.16 in 10.0 mi North 6.9 mph - N/A   Partly Cloudy
5:35 PM 80.6 °F 80.5 °F 55.4 °F 42% 30.16 in 10.0 mi North 9.2 mph - N/A   Scattered Clouds
5:55 PM 80.6 °F 80.5 °F 55.4 °F 42% 30.16 in 10.0 mi NNW 6.9 mph - N/A   Mostly Cloudy
6:15 PM 80.6 °F 80.5 °F 55.4 °F 42% 30.16 in 10.0 mi North 6.9 mph - N/A   Mostly Cloudy
6:35 PM 78.8 °F - 55.4 °F 44% 30.16 in 10.0 mi NNE 8.1 mph - N/A   Partly Cloudy
6:55 PM 78.8 °F - 55.4 °F 44% 30.16 in 10.0 mi North 5.8 mph - N/A   Partly Cloudy
7:15 PM 77.0 °F - 57.2 °F 50% 30.16 in 10.0 mi NNE 4.6 mph - N/A   Scattered Clouds
7:35 PM 77.0 °F - 57.2 °F 50% 30.17 in 10.0 mi NE 3.5 mph - N/A   Mostly Cloudy
7:55 PM 77.0 °F - 57.2 °F 50% 30.17 in 10.0 mi NNE 4.6 mph - N/A   Scattered Clouds
8:15 PM 77.0 °F - 57.2 °F 50% 30.18 in 10.0 mi NE 4.6 mph - N/A   Partly Cloudy
8:35 PM 77.0 °F - 57.2 °F 50% 30.18 in 10.0 mi Calm Calm - N/A   Partly Cloudy
8:55 PM 77.0 °F - 57.2 °F 50% 30.19 in 10.0 mi Calm Calm - N/A   Clear
9:15 PM 75.2 °F - 55.4 °F 50% 30.19 in 10.0 mi SSW 3.5 mph - N/A   Clear
9:35 PM 73.4 °F - 55.4 °F 53% 30.20 in 10.0 mi South 3.5 mph - N/A   Clear
9:55 PM 73.4 °F - 53.6 °F 50% 30.20 in 10.0 mi Calm Calm - N/A   Clear
10:15 PM 73.4 °F - 55.4 °F 53% 30.20 in 10.0 mi Calm Calm - N/A   Clear
10:35 PM 75.2 °F - 53.6 °F 47% 30.19 in 10.0 mi South 3.5 mph - N/A   Clear
10:55 PM 73.4 °F - 57.2 °F 57% 30.19 in 10.0 mi North 3.5 mph - N/A   Clear
11:15 PM 71.6 °F - 57.2 °F 60% 30.18 in 10.0 mi NNW 3.5 mph - N/A   Clear
11:35 PM 71.6 °F - 57.2 °F 60% 30.19 in 10.0 mi Calm Calm - N/A   Clear
11:55 PM 69.8 °F - 55.4 °F 60% 30.19 in 10.0 mi Calm Calm - N/A   Clear